Date String (YYYY-MM-DD hh:mm:ss) UTC,Instrument flags,Ambient pressure (hPa),Sample flow (lpm),Bypass flow (lpm),Sample temperature (°C),Ambient temperature (°C),ASC tube jacket temperature (°C),LED temperature (°C),Box temperature (°C),Sample RH (%),Span deviation,Mass concentration (μg/m³),Mass concentration (μg/m³),Mass concentration (μg/m³)
DateTimeUTC,F1_M11,P_M11,Q1_M11,Q2_M11,T1_M11,T2_M11,T3_M11,T4_M11,T5_M11,U1_M11,ZSPAN_M11,X2_M11,X0_M11,X1_M11
2022-07-29 06:00:00,,0830.5,5.00,0.00,30.5,28.0,00.0,39.1,31.8,35.0,0001.0,0007.21,0009.64,0006.83
2022-07-29 06:01:00,,0830.6,5.00,0.00,30.6,28.2,00.0,39.1,32.0,34.6,0000.4,0007.20,0009.65,0006.83
2022-07-29 06:02:00,,0830.5,4.99,0.00,30.6,28.3,00.0,39.1,32.0,34.4,0000.6,0007.20,0009.65,0006.83
2022-07-29 06:03:00,,0830.5,5.00,0.00,30.7,28.4,00.0,39.1,32.0,34.4,0000.5,0007.23,0009.73,0006.84
2022-07-29 06:04:00,,0830.5,5.00,0.00,30.7,28.5,00.0,39.1,32.0,34.3,0001.0,0007.24,0010.10,0006.83
2022-07-29 06:05:00,,0830.6,5.01,0.00,30.7,28.6,00.0,39.1,32.0,34.3,0001.2,0007.23,0010.09,0006.82
2022-07-29 06:06:00,,0830.5,5.00,0.00,30.7,28.7,00.0,39.2,32.0,34.4,0001.0,0007.22,0010.06,0006.82
2022-07-29 06:07:00,,0830.6,5.00,0.00,30.7,28.7,00.0,39.2,32.0,34.3,0000.6,0007.19,0010.02,0006.81
2022-07-29 06:08:00,,0830.6,5.00,0.00,30.7,28.8,00.0,39.2,32.0,34.2,0000.2,0007.13,0009.87,0006.78
2022-07-29 06:09:00,,0830.6,5.00,0.00,30.7,28.8,00.0,39.2,32.1,34.2,0000.2,0007.10,0009.82,0006.75
2022-07-29 06:10:00,,0830.6,5.00,0.00,30.7,28.9,00.0,39.2,32.1,34.2,0000.1,0007.04,0009.71,0006.74
2022-07-29 06:11:00,,0830.6,5.00,0.00,30.7,28.9,00.0,39.2,32.1,34.2,-000.4,0007.03,0010.02,0006.74
2022-07-29 06:12:00,,0830.6,5.00,0.00,30.7,29.0,00.0,39.2,32.1,34.2,0000.0,0007.01,0009.91,0006.74
2022-07-29 06:13:00,,0830.7,4.99,0.00,30.7,29.0,00.0,39.3,32.1,34.2,0000.0,0007.03,0009.90,0006.74
2022-07-29 06:14:00,,0830.7,5.00,0.00,30.7,29.0,00.0,39.3,32.2,34.3,0000.1,0007.06,0009.94,0006.76
2022-07-29 06:15:00,,0830.7,5.00,0.00,30.7,29.1,00.0,39.3,32.2,34.3,0000.0,0007.06,0009.65,0006.77
2022-07-29 06:16:00,,0830.8,5.00,0.00,30.7,29.1,00.0,39.3,32.2,34.2,0000.1,0007.10,0009.65,0006.80
2022-07-29 06:17:00,,0830.8,5.00,0.00,30.7,29.1,00.0,39.3,32.2,34.2,0000.1,0007.13,0009.69,0006.81
2022-07-29 06:18:00,,0830.8,5.01,0.00,30.6,28.5,00.0,39.2,32.1,34.2,-000.0,0007.14,0009.76,0006.82
2022-07-29 06:19:00,,0830.8,5.00,0.00,30.6,27.9,00.0,39.2,32.0,34.4,0000.2,0007.19,0009.90,0006.84
2022-07-29 06:20:00,,0830.8,5.00,0.00,30.5,27.7,00.0,39.2,31.9,34.6,0000.1,0007.23,0010.00,0006.87
2022-07-29 06:21:00,,0830.7,4.99,0.00,30.4,27.7,00.0,39.1,31.7,34.7,0000.0,0007.23,0010.61,0006.87
2022-07-29 06:22:00,,0830.7,5.00,0.00,30.3,27.7,00.0,39.1,31.7,34.8,-000.2,0007.24,0010.67,0006.88
2022-07-29 06:23:00,,0830.8,5.01,0.00,30.3,27.8,00.0,39.1,31.7,34.9,-000.5,0007.25,0010.65,0006.87
2022-07-29 06:24:00,,0830.8,5.00,0.00,30.2,28.0,00.0,39.0,31.7,35.0,-000.3,0007.24,0010.68,0006.86
2022-07-29 06:25:00,,0830.7,5.00,0.00,30.2,28.1,00.0,39.0,31.7,35.0,-000.5,0007.20,0010.64,0006.84
2022-07-29 06:26:00,,0830.7,5.00,0.00,30.3,28.2,00.0,39.0,31.9,35.0,-000.7,0007.20,0010.68,0006.82
2022-07-29 06:27:00,,0830.8,5.00,0.00,30.5,28.3,00.0,39.0,32.0,34.5,-001.0,0007.20,0010.73,0006.80
2022-07-29 06:28:00,,0830.8,5.00,0.00,30.6,28.4,00.0,39.0,32.0,34.2,-001.1,0007.17,0010.86,0006.76
2022-07-29 06:29:00,,0830.8,5.00,0.00,30.6,28.5,00.0,39.0,31.9,34.1,-001.1,0007.12,0010.70,0006.74
2022-07-29 06:30:00,,0830.8,5.00,0.00,30.7,28.6,00.0,39.0,32.0,34.0,-001.2,0007.04,0010.70,0006.69
2022-07-29 06:31:00,,0830.7,4.99,0.00,30.7,28.6,00.0,39.0,32.0,34.0,-000.9,0006.98,0010.63,0006.63
2022-07-29 06:32:00,,0830.8,5.01,0.00,30.7,28.7,00.0,39.1,32.0,33.9,-000.7,0006.95,0010.13,0006.60
2022-07-29 06:33:00,,0830.7,5.00,0.00,30.7,28.7,00.0,39.1,32.0,33.9,-000.4,0006.89,0010.14,0006.56
2022-07-29 06:34:00,,0830.8,5.00,0.00,30.7,28.8,00.0,39.1,32.0,33.9,0000.2,0006.87,0010.23,0006.54
2022-07-29 06:35:00,,0830.8,5.01,0.00,30.7,28.8,00.0,39.1,32.0,33.8,-000.1,0006.83,0010.15,0006.51
2022-07-29 06:36:00,,0830.7,5.00,0.00,30.7,28.9,00.0,39.2,32.1,33.8,-000.2,0006.81,0010.15,0006.48
2022-07-29 06:37:00,,0830.7,5.00,0.00,30.6,28.9,00.0,39.2,32.1,33.8,0000.1,0006.78,0010.13,0006.46
2022-07-29 06:38:00,,0830.7,5.01,0.00,30.6,29.0,00.0,39.2,32.1,33.8,0000.4,0006.72,0010.01,0006.44
2022-07-29 06:39:00,,0830.7,5.00,0.00,30.6,29.0,00.0,39.2,32.1,33.9,0000.6,0006.70,0009.83,0006.42
2022-07-29 06:40:00,,0830.6,4.99,0.00,30.6,29.0,00.0,39.2,32.1,33.8,0000.8,0006.71,0009.86,0006.42
2022-07-29 06:41:00,,0830.6,5.00,0.00,30.6,29.0,00.0,39.2,32.1,33.8,0000.9,0006.77,0009.89,0006.44
2022-07-29 06:42:00,,0830.6,5.01,0.00,30.6,29.1,00.0,39.3,32.1,33.8,0000.4,0006.81,0010.04,0006.45
2022-07-29 06:43:00,,0830.6,5.00,0.00,30.6,29.1,00.0,39.3,32.2,33.8,0000.5,0006.82,0011.05,0006.46
2022-07-29 06:44:00,,0830.7,5.00,0.00,30.6,29.1,00.0,39.3,32.2,33.8,0000.0,0006.84,0011.11,0006.47
2022-07-29 06:45:00,,0830.6,5.00,0.00,30.6,28.7,00.0,39.2,32.1,33.8,0000.0,0006.86,0011.15,0006.48
2022-07-29 06:46:00,,0830.6,5.01,0.00,30.5,28.0,00.0,39.2,31.9,34.0,0000.3,0006.89,0011.39,0006.50
2022-07-29 06:47:00,,0830.6,4.99,0.00,30.5,27.7,00.0,39.2,31.8,34.2,0001.1,0006.94,0011.41,0006.55
2022-07-29 06:48:00,,0830.6,5.00,0.00,30.4,27.7,00.0,39.1,31.7,34.3,0000.9,0006.97,0011.36,0006.57
2022-07-29 06:49:00,,0830.6,5.00,0.00,30.3,27.7,00.0,39.1,31.8,34.4,0000.6,0007.02,0011.91,0006.61
2022-07-29 06:50:00,,0830.6,4.99,0.00,30.2,27.8,00.0,39.1,31.7,34.5,0000.2,0007.07,0011.97,0006.66
2022-07-29 06:51:00,,0830.6,5.00,0.00,30.2,27.9,00.0,39.0,31.7,34.4,-000.2,0007.10,0012.08,0006.68
2022-07-29 06:52:00,,0830.6,5.00,0.00,30.2,28.1,00.0,39.0,31.7,34.5,-000.0,0007.11,0012.10,0006.69
2022-07-29 06:53:00,,0830.6,5.00,0.00,30.2,28.2,00.0,39.0,31.7,34.5,0000.0,0007.09,0011.80,0006.70
2022-07-29 06:54:00,,0830.6,4.99,0.00,30.2,28.3,00.0,39.0,31.7,34.5,0000.0,0007.10,0010.87,0006.71
2022-07-29 06:55:00,,0830.6,5.00,0.00,30.2,28.4,00.0,39.0,31.7,34.5,0000.0,0007.08,0010.40,0006.71
2022-07-29 06:56:00,,0830.6,5.00,0.00,30.1,28.5,00.0,39.0,31.8,34.5,-000.2,0007.09,0010.16,0006.71
2022-07-29 06:57:00,,0830.6,5.00,0.00,30.1,28.5,00.0,39.0,31.8,34.6,0000.0,0007.06,0009.94,0006.69
2022-07-29 06:58:00,,0830.6,5.00,0.00,30.2,28.6,00.0,39.0,31.9,34.7,0000.0,0007.05,0010.02,0006.68
2022-07-29 06:59:00,,0830.6,5.00,0.00,30.2,28.7,00.0,38.9,31.9,34.7,-000.1,0007.08,0010.08,0006.70
